Simultaneous Nadir Overpasses (SNOs) Predictions

Prediction of SNOs between LANDSAT-8 and METOP-B Satellite Orbit:

Table of predicted SNOs for the next 14.0 days since TLE Epoch: 1/12/2019
Index Date (LANDSAT-8) Time (LANDSAT-8) Lat,Lon (LANDSAT-8) SZA (LANDSAT-8 ) Date (METOP-B) Time (METOP-B) Lat,Lon (METOP-B) SZA (METOP-B ) Distance(km) Time Diff (sec)
1 01/13/2019 21:37:59 81.09,-105.27 104.17 01/13/2019 21:37:21 81.09,-105.17 104.17 1.92 38
2 01/13/2019 22:27:25 -81.11, 62.72 75.79 01/13/2019 22:28:01 -81.11, 62.62 75.79 1.81 36
3 01/16/2019 17:12:12 81.10, -38.58 103.67 01/16/2019 17:11:44 81.10, -38.55 103.66 0.60 28
4 01/16/2019 18:01:39 -81.11, 129.08 76.34 01/16/2019 18:02:25 -81.10, 128.89 76.34 3.17 46
5 01/19/2019 12:46:27 81.10, 27.73 103.06 01/19/2019 12:46:09 81.09, 27.68 103.05 0.87 18
6 01/19/2019 13:35:53 -81.12,-164.23 76.89 01/19/2019 13:36:48 -81.12,-164.09 76.85 2.32 55
7 01/22/2019 08:20:41 81.11, 94.38 102.46 01/22/2019 08:20:33 81.10, 94.27 102.44 2.05 8
8 01/22/2019 09:10:08 -81.11, -97.92 77.54 01/22/2019 09:11:13 -81.12, -97.85 77.50 1.41 65
9 01/25/2019 03:05:30 -81.08, -7.29 78.28 01/25/2019 03:04:18 -81.08, -7.26 78.30 0.60 72
10 01/25/2019 03:54:55 81.10, 160.65 101.76 01/25/2019 03:54:57 81.09, 160.48 101.74 2.90 2




NCC Satellite Simultaneous Nadir Overpasses (SNOs) Prediction Service
